HAIYANG 2C

Satellite information

Favourite Embed

Satellite Type and Status

PAYLOADIN ORBIT

Key statistics

Satellite HAIYANG 2C at a glance.

Uptime

1695

Days in orbit

Revolutions

≈ 13.8

Per day

Orbit

LEO

Low Earth Orbit

Inclination

66.0

Latest

Satellite identification and parameters

Extended collection of information and parameters for HAIYANG 2C.

Object identification

Identified? True

Debris? False

Object name: HAIYANG 2C

International designator: 2020-066A

Object number (NORAD): 46469

Object ID (CCSDS): 46469

Country: PEOPLES REPUBLIC OF CHINA (PRC)

Current information (Y/N): Y

RCS size: LARGE

Orbital parameters

Period: 104.093 minutes

Inclination: 65.994 deg

SMA: 7330.083 km

Apoapsis: 959.588 km

Periapsis: 944.308 km

RAAN: 131.988 deg

Eccentricy: 0.0010423

Argument of periapsis: 299.1671 deg

Mean anomaly: 60.8354 deg

Mean motion: 13.83373431 rev/day

Mean motion (dot): -0.00000028 rev/day2

B* drag term: 0.000048185 1/REarth

Two-line elements (TLE)

Creation date: May 12, 2025, 10:36 p.m.

Reference frame: TEME

Reference center: EARTH

Epoch: May 12, 2025, 8:52 p.m. UTC

TLE line 0: 0 HAIYANG 2C

TLE line 1: 1 46469U 20066A 25132.86965844 -.00000028 00000-0 48185-4 0 9997

TLE line 2: 2 46469 65.9940 131.9880 0010423 299.1671 60.8354 13.83373431234415

Live tracking on map

Real-time ground track for satellite HAIYANG 2C.

In-orbit conjunctions

There are no conjunctions computed for HAIYANG 2C, at the moment. Check back to stay up to date, as we update our databases every day.

Go to all conjunctions

Associated space launch

Haiyang (Chinese: "Ocean"), abbreviated HY, is a marine remote sensing satellite series planned by China.

HAIYANG 2C was lifted into orbit during the mission ‘Long March 4B | Haiyang 2C’, on board a Long March 4B space rocket.

The launch took place on Sept. 21, 2020, 5:40 a.m. from Launch Area 4 (SLS-2 / 603).

For more information about the launch, click the button.

Launch to space Long March 4B | Haiyang 2C
Long March 4B | Haiyang 2C

Agency: N/A

Status: Launch Successful

Launch date: Sept. 21, 2020, 5:40 a.m. UTC

Rocket: Long March 4B

Launch pad: Launch Area 4 (SLS-2 / 603)

Location: Jiuquan Satellite Launch Center, People's Republic of China

...

Latest news about this satellite

News about space launch
Long March 4B launches new ocean observation satellite

News about space launch
China launches Haiyang oceanography satellite

News about space launch
China successfully launches satellites from ocean-going platform


Newsletter sign-up

Weekly statistics, charts and insights to help you stay on top of the space industry.